Carbondale, IL

12:59 AM CDT on October 23, 2019 (GMT -0500)
Southern Illinois

Weather History for KMDH - July, 2019

Change the Weather History Date:

Sunday, July 21, 2019

  Actual Average Record
Temperature  
Mean Temperature 84 °F -  
Max Temperature 93 °F 90 °F 103 °F (1930)
Min Temperature 75 °F 67 °F 53 °F (1944)
Cooling Degree Days 19    
Growing Degree Days 34 (Base 50)    
Moisture  
Dew Point 75 °F    
Average Humidity 84    
Maximum Humidity 97    
Minimum Humidity 57    
Precipitation  
Precipitation 2.14 in - - ()
Sea Level Pressure  
Sea Level Pressure 29.91 in    
Wind  
Wind Speed 6 mph (SSW)    
Max Wind Speed 20 mph    
Max Gust Speed 55 mph    
Visibility 7 miles    
Events Fog , Rain , Thunderstorm    
Averages and records for this station are not official NWS values.
T = Trace of Precipitation, MM = Missing Value Source: NWS Daily Summary

Daily Weather History Graph

Daily Weather History Graph

Search for Another Location

Airport or City:

Astronomy

Jul. 21, 2019 Rise Set
Actual Time 5:51 AM CDT 8:15 PM CDT
Civil Twilight 5:21 AM CDT 8:44 PM CDT
Nautical Twilight 4:44 AM CDT 9:21 PM CDT
Astronomical Twilight 4:03 AM CDT 10:02 PM CDT
Moon 11:14 PM CDT (7/21) 10:07 AM CDT (7/21)
Length of Visible Light 15h 23m
Length of Day
14h 23m
Waning Gibbous, 80% of the Moon is Illuminated
Jul 21
Waning Gibbous
Jul 24
Last Quarter
Jul 31
New
Aug 7
First Quarter
Aug 15
Full

Hourly Weather History & Observations

Time (CDT) Temp. Heat Index Dew Point Humidity Pressure Visibility Wind Dir Wind Speed Gust Speed Precip Events Conditions
12:52 AM 75.9 °F - 75.0 °F 97% 29.92 in 8.0 mi Calm Calm - N/A   Clear
1:52 AM 75.9 °F - 75.0 °F 97% 29.92 in 7.0 mi Calm Calm - N/A   Clear
2:52 AM 75.9 °F - 75.0 °F 97% 29.90 in 7.0 mi Calm Calm - N/A   Clear
3:52 AM 75.9 °F - 75.0 °F 97% 29.89 in 7.0 mi South 4.6 mph - N/A   Clear
4:52 AM 77.0 °F - 75.0 °F 94% 29.91 in 8.0 mi South 3.5 mph - N/A   Clear
5:52 AM 78.1 °F - 75.9 °F 93% 29.92 in 7.0 mi SSW 6.9 mph - N/A   Clear
6:52 AM 78.1 °F - 75.9 °F 93% 29.92 in 6.0 mi South 5.8 mph - N/A   Scattered Clouds
7:52 AM 81.0 °F 87.9 °F 77.0 °F 88% 29.92 in 8.0 mi SSW 8.1 mph - N/A   Clear
8:52 AM 82.0 °F 90.2 °F 77.0 °F 85% 29.91 in 8.0 mi SSW 11.5 mph - N/A   Clear
9:52 AM 84.0 °F 93.7 °F 77.0 °F 79% 29.94 in 9.0 mi West 8.1 mph - N/A   Partly Cloudy
10:48 AM 84.2 °F 94.1 °F 77.0 °F 79% 29.96 in 10.0 mi West 6.9 mph - N/A   Mostly Cloudy
10:52 AM 84.9 °F 95.3 °F 77.0 °F 77% 29.95 in 10.0 mi WSW 4.6 mph - N/A   Mostly Cloudy
11:38 AM 87.1 °F 98.8 °F 77.0 °F 72% 29.96 in 10.0 mi West 6.9 mph - N/A   Scattered Clouds
11:52 AM 88.0 °F 100.2 °F 77.0 °F 70% 29.94 in 10.0 mi West 6.9 mph - N/A   Mostly Cloudy
11:59 AM 87.1 °F 98.8 °F 77.0 °F 72% 29.95 in 10.0 mi West 5.8 mph - N/A   Partly Cloudy
12:13 PM 89.1 °F 103.2 °F 78.1 °F 70% 29.95 in 10.0 mi WSW 5.8 mph - N/A   Mostly Cloudy
12:39 PM 89.1 °F 103.2 °F 78.1 °F 70% 29.94 in 10.0 mi SW 5.8 mph - N/A   Mostly Cloudy
12:52 PM 90.0 °F 104.5 °F 78.1 °F 68% 29.92 in 10.0 mi SW 4.6 mph - N/A   Partly Cloudy
1:52 PM 90.0 °F 102.5 °F 77.0 °F 65% 29.90 in 10.0 mi SW 9.2 mph - N/A   Scattered Clouds
2:52 PM 93.0 °F 106.7 °F 77.0 °F 59% 29.88 in 10.0 mi SW 11.5 mph - N/A   Mostly Cloudy
3:52 PM 93.0 °F 105.3 °F 75.9 °F 57% 29.87 in 10.0 mi SW 11.5 mph - N/A   Mostly Cloudy
4:52 PM 90.0 °F 102.5 °F 77.0 °F 65% 29.88 in 10.0 mi SSW 10.4 mph - N/A   Mostly Cloudy
5:47 PM 80.6 °F 85.4 °F 73.4 °F 79% 29.89 in 1.8 mi WSW 15.0 mph - 0.06 in Rain Heavy Rain
5:52 PM 78.1 °F - 70.0 °F 76% 29.88 in 1.5 mi West 11.5 mph 23.0 mph 0.11 in Rain , Thunderstorm Thunderstorms and Rain
6:06 PM 75.9 °F - 73.0 °F 91% 29.88 in 3.0 mi NNE 5.8 mph - 0.08 in Rain , Thunderstorm Light Thunderstorms and Rain
6:13 PM 75.9 °F - 73.0 °F 91% 29.88 in 2.0 mi Variable 3.5 mph - 0.11 in Rain , Thunderstorm Heavy Thunderstorms and Rain
6:35 PM 77.0 °F - 75.0 °F 94% 29.88 in 0.5 mi North 18.4 mph 26.5 mph 0.55 in Fog , Rain , Thunderstorm Heavy Thunderstorms and Rain
6:44 PM 75.0 °F - 71.1 °F 87% 29.84 in 0.2 mi ENE 12.7 mph 55.2 mph 0.90 in Fog , Rain , Thunderstorm Heavy Thunderstorms and Rain
6:52 PM 77.0 °F - 70.0 °F 79% 29.87 in 0.2 mi East 19.6 mph 36.8 mph 1.40 in Rain , Thunderstorm Heavy Thunderstorms and Rain
6:59 PM 75.9 °F - 72.0 °F 87% 29.86 in 0.2 mi ESE 19.6 mph 32.2 mph 0.41 in Fog , Rain , Thunderstorm Heavy Thunderstorms and Rain
7:06 PM 75.0 °F - 72.0 °F 90% 29.89 in 0.5 mi SE 12.7 mph 29.9 mph 0.62 in Fog , Rain , Thunderstorm Heavy Thunderstorms and Rain
7:11 PM 75.0 °F - 71.1 °F 87% 29.90 in 2.5 mi SE 16.1 mph 24.2 mph 0.62 in Rain , Thunderstorm Light Thunderstorms and Rain
7:14 PM 75.0 °F - 71.1 °F 87% 29.89 in 5.0 mi SSE 18.4 mph 25.3 mph 0.62 in Rain , Thunderstorm Light Thunderstorms and Rain
7:52 PM 75.9 °F - 73.0 °F 91% 29.89 in 10.0 mi SSE 10.4 mph - 0.63 in Rain , Thunderstorm Light Thunderstorms and Rain
7:57 PM 75.9 °F - 73.0 °F 91% 29.91 in 10.0 mi SSE 9.2 mph - 0.00 in Rain Light Rain
8:52 PM 75.0 °F - 73.9 °F 96% 29.89 in 10.0 mi South 4.6 mph - 0.00 in   Clear
9:52 PM 75.9 °F - 73.9 °F 94% 29.89 in 10.0 mi WSW 3.5 mph - N/A   Partly Cloudy
10:52 PM 75.9 °F - 73.9 °F 94% 29.90 in 10.0 mi SW 4.6 mph - N/A   Mostly Cloudy
11:38 PM 75.0 °F - 73.9 °F 96% 29.92 in 10.0 mi ENE 8.1 mph - N/A   Partly Cloudy
11:52 PM 75.0 °F - 73.9 °F 96% 29.91 in 10.0 mi ESE 5.8 mph - N/A   Clear